This demonstration page uses our WeatherBlox Daily Observations layout. Learn more.

40.92945, -100.16068

Hourly Observations for July 31, 2015

Temp ( °F °C ) Dew Point ( °F °C ) Humidity (%) Winds ( mph kmh ) Pressure ( in mb ) Visibility ( mi km ) Precip ( " mm )
12:15 am 00:15 Clear 71 21.7 66 19 85 85 S 5 7 30.06 1018 10 16.0934 N/A
12:35 am 00:35 Clear 70 21 66 18.8 87 87 Calm 30.12 1020 10 16.0934 N/A
12:55 am 00:55 Clear 70 21.2 66 18.8 86 86 Calm 30.12 1020 10 16.0934 N/A
1:15 am 01:15 Clear 69 20.5 65 18.3 87 87 Calm 30.12 1020 10 16.0934 N/A
1:35 am 01:35 Clear 67 19.2 64 17.5 90 90 Calm 30.12 1020 10 16.0934 N/A
1:55 am 01:55 Clear 66 18.9 63 17.4 91 91 Calm 30.12 1020 10 16.0934 N/A
2:15 am 02:15 Clear 67 19.2 64 17.8 92 92 Calm 30.12 1020 10 16.0934 N/A
2:35 am 02:35 Clear 65 18.6 63 17.2 92 92 Calm 30.12 1020 10 16.0934 N/A
2:55 am 02:55 Clear 65 18.5 63 17.4 93 93 Calm 30.12 1020 7 11.26538 N/A
3:15 am 03:15 Clear 65 18.5 63 17.4 93 93 Calm 30.12 1020 7 11.26538 N/A
3:35 am 03:35 Clear 65 18.5 64 17.5 94 94 Calm 30.12 1020 10 16.0934 N/A
3:55 am 03:55 Clear 65 18.3 63 17.3 94 94 Calm 30.15 1021 10 16.0934 N/A
4:15 am 04:15 Clear 64 17.8 62 16.8 94 94 Calm 30.15 1021 7 11.26538 N/A
4:35 am 04:35 Clear 64 17.6 62 16.7 95 95 Calm 30.15 1021 7 11.26538 N/A
4:55 am 04:55 Clear 64 17.5 62 16.6 95 95 Calm 30.15 1021 7 11.26538 N/A
5:15 am 05:15 Partly Cloudy 64 17.6 62 16.8 95 95 Calm 30.15 1021 7 11.26538 N/A
5:35 am 05:35 Partly Cloudy 64 18 63 17.1 95 95 Calm 30.15 1021 7 11.26538 N/A
5:55 am 05:55 Clear 64 17.5 62 16.6 95 95 Calm 30.15 1021 7 11.26538 N/A
6:15 am 06:15 Partly Cloudy 63 17.2 62 16.4 95 95 Calm 30.15 1021 7 11.26538 N/A
6:35 am 06:35 Partly Cloudy 64 17.9 63 17.1 95 95 Calm 30.15 1021 7 11.26538 N/A
6:55 am 06:55 Partly Cloudy 64 17.8 62 16.8 94 94 Calm 30.15 1021 7 11.26538 N/A
7:15 am 07:15 Sunny with Mist and Fog 64 17.8 63 17 95 95 Calm 30.15 1021 5 8.0467 N/A
7:35 am 07:35 Partly Cloudy 66 19.1 65 18.2 95 95 SW 5 7 30.12 1020 7 11.26538 N/A
7:55 am 07:55 Partly Cloudy 71 21.5 67 19.7 90 90 Calm 30.09 1019 10 16.0934 N/A
8:15 am 08:15 Partly Cloudy 72 22 68 19.8 87 87 Calm 30.09 1019 10 16.0934 N/A
8:35 am 08:35 Sunny 74 23.4 69 20.4 83 83 Calm 30.09 1019 10 16.0934 N/A
8:55 am 08:55 Sunny 76 24.2 69 20.6 80 80 SW 3 6 30.09 1019 10 16.0934 N/A
9:15 am 09:15 Sunny 76 24.2 69 20.5 80 80 WSW 5 7 30.09 1019 10 16.0934 N/A
9:35 am 09:35 Partly Cloudy 77 25.1 70 20.9 78 78 W 3 6 30.09 1019 10 16.0934 N/A
9:55 am 09:55 Sunny 79 25.9 69 20.8 74 74 W 5 7 30.06 1018 10 16.0934 N/A
10:15 am 10:15 Sunny 81 27.1 71 21.4 71 71 W 6 9 30.06 1018 10 16.0934 N/A
10:35 am 10:35 Sunny 82 27.7 70 21.3 68 68 W 6 9 30.06 1018 10 16.0934 N/A
10:55 am 10:55 Sunny 83 28.5 71 21.5 66 66 W 3 6 30.03 1017 10 16.0934 N/A
11:15 am 11:15 Sunny 85 29.6 70 21.1 60 60 WSW 6 9 30.03 1017 10 16.0934 N/A
11:35 am 11:35 Sunny 86 29.9 70 21.1 59 59 W 6 9 30.03 1017 10 16.0934 N/A
11:55 am 11:55 Sunny 86 30.2 68 20.1 55 55 WSW 7 11 30.03 1017 10 16.0934 N/A
12:15 pm 12:15 Sunny 87 30.7 67 19.7 52 52 SW 5 7 30.03 1017 10 16.0934 N/A
12:35 pm 12:35 Sunny 88 31.1 67 19.7 51 51 SW 5 7 30 1016 10 16.0934 N/A
12:55 pm 12:55 Sunny 88 31.1 65 18.6 47 47 SW 6 9 30 1016 10 16.0934 N/A
1:15 pm 13:15 Sunny 89 31.5 66 18.8 47 47 WSW 3 6 30 1016 10 16.0934 N/A
1:35 pm 13:35 Sunny 89 31.8 65 18.6 45 45 W 3 6 30 1016 10 16.0934 N/A
1:55 pm 13:55 Sunny 90 32 64 17.6 42 42 S 5 7 30 1016 10 16.0934 N/A
2:15 pm 14:15 Sunny 92 33.1 64 17.8 40 40 WSW 3 6 29.97 1015 10 16.0934 N/A
2:35 pm 14:35 Sunny 91 33 64 17.6 40 40 SSW 3 6 29.94 1014 10 16.0934 N/A
2:55 pm 14:55 Sunny 92 33.1 62 16.7 37 37 S 8 13 29.94 1014 10 16.0934 N/A
3:15 pm 15:15 Sunny 92 33.4 63 17.1 38 38 S 6 9 29.94 1014 10 16.0934 N/A
3:35 pm 15:35 Sunny 92 33.4 63 17.2 38 38 SSW 9 15 29.91 1013 10 16.0934 N/A
3:55 pm 15:55 Sunny 93 33.8 61 16.1 35 35 Calm 29.91 1013 10 16.0934 N/A
4:15 pm 16:15 Sunny 93 33.8 61 16.2 35 35 SSW 8 13 29.91 1013 10 16.0934 N/A
4:35 pm 16:35 Sunny 94 34.3 62 16.4 34 34 SW 8 13 29.91 1013 10 16.0934 N/A
4:55 pm 16:55 Sunny 93 34 61 16 34 34 SW 7 11 29.88 1012 10 16.0934 N/A
5:15 pm 17:15 Sunny 93 34 61 16.1 34 34 SW 7 11 29.88 1012 10 16.0934 N/A
5:35 pm 17:35 Sunny 94 34.2 60 15.5 33 33 SW 5 7 29.88 1012 10 16.0934 N/A
5:55 pm 17:55 Sunny 93 34.1 61 16.3 34 34 SSW 8 13 29.85 1011 10 16.0934 N/A
6:15 pm 18:15 Sunny 92 33.5 60 15.4 34 34 SW 5 7 29.85 1011 10 16.0934 N/A
6:35 pm 18:35 Sunny 92 33.6 61 15.9 35 35 SSW 5 7 29.85 1011 10 16.0934 N/A
7:15 pm 19:15 Sunny 92 33.1 62 16.5 37 37 S 5 7 29.85 1011 10 16.0934 N/A
7:35 pm 19:35 Sunny 91 32.7 62 16.5 38 38 SSE 3 6 29.85 1011 10 16.0934 N/A
7:55 pm 19:55 Sunny 90 32 63 17 41 41 SE 6 9 29.85 1011 10 16.0934 N/A
8:15 pm 20:15 Sunny 80 26.6 64 17.7 58 58 E 16 26 29.94 1014 10 16.0934 N/A
8:35 pm 20:35 Sunny 77 25 62 16.9 61 61 ESE 16 26 29.94 1014 10 16.0934 N/A
8:55 pm 20:55 Sunny 76 24.3 62 16.5 62 62 ESE 13 20 30 1016 10 16.0934 N/A
9:15 pm 21:15 Clear 74 23.6 62 16.4 64 64 E 14 22 30 1016 10 16.0934 N/A
9:35 pm 21:35 Clear 74 23.3 61 16 64 64 ESE 10 17 30 1016 10 16.0934 N/A
9:55 pm 21:55 Clear 73 23 61 16.1 65 65 ESE 13 20 30 1016 10 16.0934 N/A
10:15 pm 22:15 Clear 73 22.6 60 15.7 65 65 ESE 10 17 30 1016 10 16.0934 N/A
10:35 pm 22:35 Clear 72 22.4 60 15.6 66 66 SE 10 17 30.03 1017 10 16.0934 N/A
10:55 pm 22:55 Clear 72 22 60 15.6 67 67 SE 10 17 30.03 1017 10 16.0934 N/A
11:15 pm 23:15 Clear 71 21.7 60 15.8 69 69 SE 8 13 30.03 1017 10 16.0934 N/A
11:35 pm 23:35 Clear 70 21.2 61 16 72 72 SE 8 13 30 1016 10 16.0934 N/A
11:55 pm 23:55 Clear 70 21 61 16 73 73 SE 8 13 30.06 1018 10 16.0934 N/A

Powered by AerisWeather